User: anonymous   Login
Location: Austin, TX
(30.3000°N, 97.7500°W)
Time: 11:53:08
(UTC-05:00)
Language:

Cosmos 2082 Rocket - Orbit

View from above orbital plane
View from above orbital plane
View from above satellite
View from above satellite

Ground track
Ground track

The orbit data is extracted from the following two-line orbital elements,

1 20625U 90046B   16273.49330870  .00000218  00000-0  13813-3 0  9997
2 20625  71.0012 336.2764 0013049 151.1724 209.0122 14.14607792360979
Epoch (UTC): 29 September 2016 11:50:21
Eccentricity: 0.0013049
inclination: 71.0012°
perigee height: 834 km
apogee height: 853 km
right ascension of ascending node: 336.2764°
argument of perigee: 151.1724°
revolutions per day: 14.14607792
mean anomaly at epoch: 209.0122°
orbit number at epoch: 36097

The dashed part of the orbit path shows where the satellite is in the earth's shadow,  

DLR